NY5V Weather Reports


Display with metric or nautical units.
time (UTC)temp
F
wind
direction
speed
MPH
gust
MPH
rain 1hr
in
rain 24hr
in
rain mn
in
humidity
%
barometer
mb
20260502221825 74 109 3.0 3.0 0.00 0.00 0.00 40 1018.7
20260502220825 74 89 1.0 2.0 0.00 0.00 0.00 38 1018.8
20260502215823 74 77 2.0 3.0 0.00 0.00 0.00 39 1018.9
20260502214823 74 68 1.0 1.0 0.00 0.00 0.00 40 1018.9
20260502213823 74 109 2.0 3.0 0.00 0.00 0.00 41 1018.8
20260502212819 74 80 2.0 3.0 0.00 0.00 0.00 40 1019.0
20260502211814 74 85 2.0 4.0 0.00 0.00 0.00 39 1019.1
20260502210813 75 123 2.0 3.0 0.00 0.00 0.00 41 1019.1
20260502205813 74 87 1.0 2.0 0.00 0.00 0.00 40 1019.4
20260502204811 74 66 0.0 0.0 0.00 0.00 0.00 39 1019.3
20260502203811 74 58 1.0 1.0 0.00 0.00 0.00 40 1019.5
20260502202808 73 85 1.0 1.0 0.00 0.00 0.00 39 1019.5
20260502201804 73 76 2.0 3.0 0.00 0.00 0.00 42 1019.5
20260502200802 73 69 1.0 2.0 0.00 0.00 0.00 43 1019.7
20260502195803 74 61 0.0 1.0 0.00 0.00 0.00 43 1019.7
20260502194801 73 66 1.0 1.0 0.00 0.00 0.00 43 1020.0
20260502193759 72 77 1.0 2.0 0.00 0.00 0.00 43 1020.3
20260502192757 72 65 1.0 1.0 0.00 0.00 0.00 48 1020.2
20260502191758 72 77 1.0 1.0 0.00 0.00 0.00 48 1020.3
20260502190753 72 61 0.0 1.0 0.00 0.00 0.00 48 1020.5
20260502185750 72 121 3.0 4.0 0.00 0.00 0.00 49 1020.5
20260502184749 72 49 0.0 0.0 0.00 0.00 0.00 46 1020.5
20260502183748 72 56 0.0 0.0 0.00 0.00 0.00 48 1020.7
20260502182745 72 108 2.0 3.0 0.00 0.00 0.00 47 1020.7
20260502181743 72 50 0.0 0.0 0.00 0.00 0.00 47 1021.0
20260502180740 72 78 2.0 2.0 0.00 0.00 0.00 47 1021.1
20260502163726 70 67 2.0 2.0 0.00 0.00 0.00 55 1021.6
20260502162725 70 66 0.0 0.0 0.00 0.00 0.00 56 1021.5
20260502161725 69 53 0.0 0.0 0.00 0.00 0.00 60 1021.6
20260502160720 68 61 0.0 1.0 0.00 0.00 0.00 62 1021.6
20260502151652 66 55 0.0 1.0 0.00 0.00 0.00 72 1021.3
20260502150652 64 55 0.0 0.0 0.00 0.00 0.00 75 1021.4
20260502130642 53 60 0.0 0.0 0.00 0.00 0.00 99 1020.4
20260502123636 51 55 0.0 0.0 0.00 0.00 0.00 99 1020.0
20260502122635 51 53 0.0 0.0 0.00 0.00 0.00 99 1020.0
20260502121636 50 53 0.0 0.0 0.00 0.00 0.00 99 1020.0
20260502120635 50 53 0.0 0.0 0.00 0.00 0.00 99 1019.5
20260502115635 50 53 0.0 0.0 0.00 0.00 0.00 99 1019.5
20260502114633 50 53 0.0 0.0 0.00 0.00 0.00 99 1019.2
20260502113628 50 51 0.0 0.0 0.00 0.00 0.00 99 1019.2
20260502112624 50 53 0.0 0.0 0.00 0.00 0.00 99 1019.1
20260502111624 50 53 0.0 0.0 0.00 0.00 0.00 99 1018.7
20260502110619 50 53 0.0 0.0 0.00 0.00 0.00 99 1018.8
20260502105614 50 54 0.0 0.0 0.00 0.00 0.00 99 1018.7
20260502104614 50 55 0.0 0.0 0.00 0.00 0.00 99 1018.5
20260502103609 50 55 0.0 0.0 0.00 0.00 0.00 99 1018.5
20260502102609 51 55 0.0 0.0 0.00 0.00 0.00 98 1018.4
20260502101610 51 55 0.0 0.0 0.00 0.00 0.00 98 1018.5
20260502100606 51 55 0.0 0.0 0.00 0.00 0.00 98 1018.4
20260502090552 52 58 0.0 0.0 0.00 0.00 0.00 97 1017.9
20260502071533 54 58 0.0 0.0 0.00 0.00 0.00 94 1018.0
20260502070529 54 64 0.0 0.0 0.00 0.00 0.00 94 1018.4
20260502065525 54 64 0.0 0.0 0.00 0.00 0.00 94 1018.4
20260502064521 54 67 1.0 1.0 0.00 0.00 0.00 95 1018.2
20260502063521 54 63 0.0 0.0 0.00 0.00 0.00 95 1018.3
20260502062521 54 71 1.0 1.0 0.00 0.00 0.00 94 1018.2
20260502061517 55 66 0.0 1.0 0.00 0.00 0.00 94 1018.1
20260502060515 55 64 0.0 0.0 0.00 0.00 0.00 95 1018.0
20260502055516 55 63 0.0 0.0 0.00 0.00 0.00 95 1018.2
20260502054513 55 63 0.0 0.0 0.00 0.00 0.00 95 1018.1
20260502053512 55 67 0.0 0.0 0.00 0.00 0.00 95 1018.2
20260502052508 55 66 0.0 0.0 0.00 0.00 0.00 96 1018.1
20260502051504 55 61 0.0 0.0 0.00 0.00 0.00 95 1018.2
20260502050503 55 61 0.0 0.0 0.00 0.00 0.00 95 1017.9
20260502045503 55 65 0.0 0.0 0.00 0.18 0.18 95 1017.8
20260502044502 55 63 0.0 0.0 0.00 0.18 0.18 95 1017.9
20260502043456 55 64 0.0 0.0 0.00 0.18 0.18 95 1017.8
20260502042453 55 57 0.0 0.0 0.00 0.18 0.18 97 1017.9
20260502041448 55 53 0.0 0.0 0.00 0.18 0.18 97 1017.7
20260502040447 55 53 0.0 0.0 0.00 0.18 0.18 97 1017.8
20260502035445 55 53 0.0 0.0 0.00 0.18 0.18 96 1017.8
20260502034442 55 53 0.0 0.0 0.00 0.18 0.18 96 1017.6
20260502033443 55 53 0.0 0.0 0.00 0.18 0.18 96 1017.7
20260502032442 55 61 0.0 0.0 0.00 0.18 0.18 95 1017.7
20260502031437 56 64 0.0 0.0 0.00 0.18 0.18 95 1017.8
20260502030433 55 67 0.0 0.0 0.00 0.18 0.18 94 1017.8
20260502025433 55 58 0.0 0.0 0.00 0.18 0.18 94 1017.1
20260502024429 55 58 0.0 0.0 0.00 0.18 0.18 94 1016.8
20260502023424 55 58 0.0 0.0 0.00 0.18 0.18 93 1017.2
20260502022424 56 61 0.0 0.0 0.00 0.18 0.18 93 1016.9
20260502021418 56 64 0.0 0.0 0.00 0.18 0.18 93 1016.8
20260502020413 55 75 0.0 0.0 0.00 0.18 0.18 94 1016.9
20260502015413 55 66 0.0 0.0 0.00 0.18 0.18 96 1016.7
20260502014412 55 50 0.0 0.0 0.00 0.18 0.18 96 1017.2
20260502013409 56 41 0.0 0.0 0.00 0.18 0.18 96 1017.1
20260502012405 56 56 0.0 0.0 0.00 0.18 0.18 95 1016.9
20260502011403 56 59 0.0 0.0 0.00 0.18 0.18 94 1016.3
20260502010403 56 57 0.0 0.0 0.00 0.18 0.18 94 1016.8
20260502005404 56 56 0.0 0.0 0.00 0.18 0.18 93 1016.1
20260502004403 56 67 0.0 0.0 0.00 0.18 0.18 93 1015.6
20260502003357 56 57 0.0 0.0 0.00 0.18 0.18 91 1015.8
20260502002357 56 64 0.0 0.0 0.00 0.18 0.18 91 1015.8
20260502001358 56 64 0.0 0.0 0.00 0.18 0.18 90 1016.0
20260502000354 57 63 0.0 0.0 0.00 0.18 0.18 90 1015.6
20260501235351 57 60 0.0 0.0 0.00 0.18 0.18 89 1015.7
20260501234349 57 64 0.0 0.0 0.00 0.18 0.18 88 1015.7
20260501233344 57 62 0.0 0.0 0.00 0.18 0.18 86 1015.5
20260501232343 57 70 1.0 1.0 0.00 0.18 0.18 86 1015.4
20260501231338 57 62 0.0 0.0 0.00 0.18 0.18 84 1015.8
20260501230336 57 81 1.0 1.0 0.00 0.18 0.18 83 1014.8
20260501225336 58 73 1.0 1.0 0.00 0.18 0.18 84 1015.0
20260501224334 58 69 0.0 1.0 0.00 0.18 0.18 83 1015.3
20260501223332 58 67 0.0 1.0 0.00 0.18 0.18 81 1015.0